TimeCST,TemperatureF,Dew PointF,Humidity,Sea Level PressureIn,VisibilityMPH,Wind Direction,Wind SpeedMPH,Gust SpeedMPH,PrecipitationIn,Events,Conditions,WindDirDegrees,DateUTC
12:07 AM,35.6,33.8,93,29.93,5.0,Calm,Calm,-,N/A,,Overcast,0,2013-02-05 06:07:00
12:41 AM,35.6,33.8,93,29.92,2.0,Calm,Calm,-,N/A,,Mostly Cloudy,0,2013-02-05 06:41:00
12:46 AM,35.6,33.8,93,29.92,1.8,Calm,Calm,-,N/A,,Mostly Cloudy,0,2013-02-05 06:46:00
12:53 AM,34.0,33.1,96,29.94,0.5,Calm,Calm,-,N/A,Fog,Fog,0,2013-02-05 06:53:00
12:57 AM,35.6,33.8,93,29.93,0.2,Calm,Calm,-,N/A,Fog,Fog,0,2013-02-05 06:57:00
1:11 AM,35.6,33.8,93,29.93,0.5,NW,4.6,-,N/A,Fog,Fog,320,2013-02-05 07:11:00
1:29 AM,35.6,33.8,93,29.94,2.0,NNW,3.5,-,N/A,,Overcast,330,2013-02-05 07:29:00
1:38 AM,35.6,33.8,93,29.94,5.0,Calm,Calm,-,N/A,,Overcast,0,2013-02-05 07:38:00
1:53 AM,36.0,34.0,93,29.96,6.0,Calm,Calm,-,N/A,,Overcast,0,2013-02-05 07:53:00
2:41 AM,37.4,35.6,93,29.95,6.0,NE,5.8,-,N/A,,Scattered Clouds,50,2013-02-05 08:41:00
2:53 AM,37.0,34.0,89,29.96,10.0,ENE,5.8,-,N/A,,Mostly Cloudy,60,2013-02-05 08:53:00
3:25 AM,35.6,32.0,87,29.93,10.0,ENE,3.5,-,N/A,,Scattered Clouds,70,2013-02-05 09:25:00
3:53 AM,36.0,30.9,82,29.95,10.0,Calm,Calm,-,N/A,,Clear,0,2013-02-05 09:53:00
4:53 AM,33.1,30.0,89,29.96,7.0,Calm,Calm,-,N/A,,Clear,0,2013-02-05 10:53:00
5:53 AM,32.0,28.9,88,29.98,9.0,Calm,Calm,-,N/A,,Clear,0,2013-02-05 11:53:00
6:53 AM,30.9,28.0,89,30.00,6.0,North,3.5,-,N/A,,Clear,360,2013-02-05 12:53:00
7:53 AM,33.1,28.9,85,30.03,6.0,NNW,3.5,-,N/A,,Clear,340,2013-02-05 13:53:00
8:53 AM,37.0,30.0,76,30.04,8.0,Calm,Calm,-,N/A,,Clear,0,2013-02-05 14:53:00
9:53 AM,39.0,33.1,79,30.04,8.0,Calm,Calm,-,N/A,,Clear,0,2013-02-05 15:53:00
10:53 AM,42.1,35.1,76,30.04,9.0,SSW,8.1,-,N/A,,Clear,210,2013-02-05 16:53:00
11:53 AM,46.0,37.9,73,30.01,10.0,Variable,6.9,-,N/A,,Clear,0,2013-02-05 17:53:00
12:53 PM,50.0,39.9,68,29.98,10.0,South,9.2,-,N/A,,Clear,190,2013-02-05 18:53:00
1:53 PM,53.1,39.9,61,29.96,10.0,SSW,12.7,-,N/A,,Clear,210,2013-02-05 19:53:00
2:53 PM,55.9,42.1,60,29.95,10.0,SSW,11.5,-,N/A,,Clear,210,2013-02-05 20:53:00
3:53 PM,57.0,43.0,59,29.95,10.0,SSW,10.4,-,N/A,,Clear,200,2013-02-05 21:53:00
4:53 PM,54.0,45.0,72,29.96,10.0,South,9.2,-,N/A,,Clear,190,2013-02-05 22:53:00
5:53 PM,48.9,43.0,80,29.97,10.0,SSW,6.9,-,N/A,,Clear,200,2013-02-05 23:53:00
6:53 PM,45.0,42.1,90,30.01,9.0,Calm,Calm,-,N/A,,Clear,0,2013-02-06 00:53:00
7:50 PM,42.8,39.2,87,30.01,2.0,Calm,Calm,-,N/A,,Clear,0,2013-02-06 01:50:00
7:53 PM,42.1,39.9,92,30.03,2.0,Calm,Calm,-,N/A,,Clear,0,2013-02-06 01:53:00
8:00 PM,41.0,39.2,93,30.02,1.8,Calm,Calm,-,N/A,,Clear,0,2013-02-06 02:00:00
8:09 PM,41.0,39.2,93,30.02,3.0,South,3.5,-,N/A,,Clear,180,2013-02-06 02:09:00
8:22 PM,39.2,37.4,93,30.02,1.8,South,3.5,-,N/A,,Clear,190,2013-02-06 02:22:00
8:29 PM,39.2,37.4,93,30.03,0.5,Calm,Calm,-,N/A,Fog,Fog,0,2013-02-06 02:29:00
8:53 PM,39.9,37.9,93,30.05,0.5,Calm,Calm,-,N/A,Fog,Fog,0,2013-02-06 02:53:00
9:13 PM,37.4,37.4,100,30.04,0.2,Calm,Calm,-,N/A,Fog,Fog,0,2013-02-06 03:13:00
9:53 PM,37.0,35.1,93,30.07,0.2,Calm,Calm,-,N/A,Fog,Fog,0,2013-02-06 03:53:00
10:33 PM,37.4,35.6,93,30.06,0.5,NNE,4.6,-,N/A,Fog,Fog,20,2013-02-06 04:33:00
10:41 PM,37.4,35.6,93,30.07,0.2,NE,3.5,-,N/A,Fog,Fog,40,2013-02-06 04:41:00
10:53 PM,36.0,34.0,93,30.09,0.2,Calm,Calm,-,N/A,Fog,Fog,0,2013-02-06 04:53:00
11:00 PM,35.6,33.8,93,30.07,0.2,Calm,Calm,-,N/A,Fog,Fog,0,2013-02-06 05:00:00
11:21 PM,35.6,33.8,93,30.08,0.8,NNW,3.5,-,N/A,,Mist,330,2013-02-06 05:21:00
11:29 PM,35.6,33.8,93,30.08,2.0,Calm,Calm,-,N/A,,Mist,0,2013-02-06 05:29:00
11:37 PM,33.8,32.0,93,30.08,4.0,North,3.5,-,N/A,,Partly Cloudy,350,2013-02-06 05:37:00
11:53 PM,35.1,33.1,92,30.10,6.0,Calm,Calm,-,N/A,,Clear,0,2013-02-06 05:53:00